sat.trackr.live / text

‹ back to catalog

STARLINK-2524

NORAD 48304 · 2021-036AE

PAYLOAD ACTIVE UNKNOWN

§ Identity

Operator
Country
US
Launch date
2021-04-29
Launch site
AFETR
Launch vehicle
Mass (kg)
RCS (m²)

Purposes: comms

External: N2YO · Heavens-Above · Gunter

§ Orbital elements

Epoch: 2026-09-20T00:07:48.859968Z

Period
94.01 min
Inclination
53.1587°
Eccentricity
0.0001360
Mean motion
15.31700235 rev/d
Perigee alt
469.8 km
Apogee alt
471.7 km
Semi-major
6,848.9 km
B*
2.4618e-5
RAAN
274.5936°
Arg perigee
78.1217°
Mean anomaly
281.9937°
Rev number
29,783

§ Raw data

STARLINK-25241 48304U 21036AE  26263.00542662  .00000399  00000+0  24618-4 0  99902 48304  53.1587 274.5936 0001360  78.1217 281.9937 15.31700235297837

JSON: /api/v1/satellites/48304 · /tle

For live sub-satellite position, see the globe view (requires WebGL).

§ Visibility from observer

Set your observer location to see the next 7 days of passes ≥ 10°. The values pass through the URL so the page stays shareable.

No JS? Fill the form by hand. The geolocation button needs JavaScript.